When you browse on this site, cookies collect data to enhance your experience and personalize the content and advertising you see.
Visit our Privacy Policy to learn more. By continuing to use the site, you agree to this use of cookies and data.
  • In Portugal
  • List of Countries
  • For 7 days
  • Water Temperature
  • Weather Map
  • Weather Widgets
  • user-avatar
    Login

    Hourly Weather Staraya Mihaylovka

    Today, 21 August, Wednesday

    Time Temperature Precipitation Wind Pressure Humidity
    00:00 +18°C° 0 mm 1 mps 753 mmHg 91%
    01:00 +18°C° 0 mm 1 mps 753 mmHg 92%
    02:00 +17°C° 0 mm 2 mps 753 mmHg 92%
    03:00 +16°C° 0 mm 2 mps 754 mmHg 93%
    04:00 +17°C° 0 mm 2 mps 754 mmHg 93%
    05:00 +18°C° 0 mm 1 mps 754 mmHg 93%
    06:00 +18°C° 0 mm 1 mps 754 mmHg 93%
    07:00 +20°C° 0 mm 1 mps 754 mmHg 87%
    08:00 +20°C° 0 mm 2 mps 754 mmHg 81%
    09:00 +23°C° 0 mm 2 mps 754 mmHg 76%
    10:00 +24°C° 0 mm 2 mps 754 mmHg 72%
    11:00 +25°C° 0 mm 2 mps 754 mmHg 68%
    12:00 +26°C° 0 mm 2 mps 754 mmHg 64%
    13:00 +26°C° 0 mm 2 mps 754 mmHg 62%
    14:00 +26°C° 0 mm 2 mps 754 mmHg 61%
    15:00 +27°C° 0 mm 2 mps 754 mmHg 59%
    16:00 +26°C° 0 mm 2 mps 754 mmHg 64%
    17:00 +25°C° 0 mm 2 mps 754 mmHg 70%
    18:00 +25°C° 0 mm 2 mps 753 mmHg 75%
    19:00 +23°C° 0 mm 2 mps 753 mmHg 78%
    20:00 +22°C° 0 mm 1 mps 753 mmHg 81%
    21:00 +21°C° 0 mm 1 mps 753 mmHg 85%
    22:00 +20°C° 0 mm 1 mps 753 mmHg 86%
    23:00 +20°C° 0 mm 1 mps 753 mmHg 87%

    Tomorrow, 22 August, Thursday

    Time Temperature Precipitation Wind Pressure Humidity
    00:00 +18°C° 0 mm 0 mps 754 mmHg 88%
    01:00 +17°C° 0 mm 0 mps 754 mmHg 88%
    02:00 +17°C° 0 mm 0 mps 754 mmHg 89%
    03:00 +17°C° 0 mm 0 mps 754 mmHg 89%
    04:00 +17°C° 0 mm 0 mps 753 mmHg 89%
    05:00 +17°C° 0 mm 0 mps 753 mmHg 89%
    06:00 +17°C° 0 mm 0 mps 753 mmHg 89%
    07:00 +19°C° 0 mm 0 mps 753 mmHg 83%
    08:00 +22°C° 0 mm 1 mps 753 mmHg 78%
    09:00 +24°C° 0 mm 1 mps 753 mmHg 72%
    10:00 +25°C° 0 mm 1 mps 753 mmHg 68%
    11:00 +26°C° 0 mm 1 mps 753 mmHg 64%
    12:00 +27°C° 0 mm 1 mps 753 mmHg 60%
    13:00 +27°C° 0 mm 1 mps 752 mmHg 58%
    14:00 +27°C° 0 mm 1 mps 752 mmHg 57%
    15:00 +28°C° 0 mm 1 mps 752 mmHg 55%
    16:00 +27°C° 0 mm 1 mps 752 mmHg 59%
    17:00 +27°C° 0 mm 1 mps 751 mmHg 63%
    18:00 +26°C° 0 mm 1 mps 751 mmHg 68%
    19:00 +25°C° 0 mm 1 mps 751 mmHg 70%
    20:00 +23°C° 0 mm 1 mps 751 mmHg 73%
    21:00 +22°C° 0 mm 1 mps 752 mmHg 76%
    22:00 +21°C° 0 mm 1 mps 752 mmHg 78%
    23:00 +21°C° 0 mm 1 mps 752 mmHg 79%

    Day after tomorrow, 23 August, Friday

    Time Temperature Precipitation Wind Pressure Humidity
    00:00 +21°C° 0 mm 1 mps 752 mmHg 81%
    01:00 +20°C° 0 mm 1 mps 752 mmHg 84%
    02:00 +19°C° 0 mm 2 mps 752 mmHg 87%
    03:00 +19°C° 0 mm 2 mps 753 mmHg 90%
    04:00 +18°C° 0 mm 3 mps 753 mmHg 90%
    05:00 +18°C° 0 mm 4 mps 753 mmHg 90%
    06:00 +17°C° 0 mm 4 mps 753 mmHg 91%
    07:00 +18°C° 0 mm 4 mps 753 mmHg 88%
    08:00 +18°C° 0 mm 4 mps 754 mmHg 85%
    09:00 +18°C° 0 mm 4 mps 754 mmHg 82%
    10:00 +19°C° 0 mm 4 mps 754 mmHg 76%
    11:00 +20°C° 0 mm 4 mps 754 mmHg 71%
    12:00 +21°C° 0 mm 4 mps 754 mmHg 65%
    13:00 +22°C° 0 mm 4 mps 754 mmHg 63%
    14:00 +22°C° 0 mm 4 mps 754 mmHg 61%
    15:00 +22°C° 0 mm 4 mps 754 mmHg 59%
    16:00 +22°C° 0 mm 4 mps 754 mmHg 63%
    17:00 +21°C° 0 mm 3 mps 754 mmHg 67%
    18:00 +20°C° 0 mm 3 mps 754 mmHg 71%
    19:00 +19°C° 0 mm 3 mps 754 mmHg 73%
    20:00 +17°C° 0 mm 2 mps 755 mmHg 75%
    21:00 +16°C° 0 mm 2 mps 755 mmHg 77%
    22:00 +16°C° 0 mm 2 mps 755 mmHg 78%
    23:00 +16°C° 0 mm 2 mps 755 mmHg 78%

    24 August, Saturday

    Time Temperature Precipitation Wind Pressure Humidity
    00:00 +15°C° 0 mm 2 mps 755 mmHg 79%
    01:00 +15°C° 0 mm 2 mps 755 mmHg 80%
    02:00 +14°C° 0 mm 2 mps 755 mmHg 81%
    03:00 +14°C° 0 mm 1 mps 755 mmHg 83%
    04:00 +14°C° 0 mm 1 mps 755 mmHg 83%
    05:00 +14°C° 0 mm 1 mps 755 mmHg 84%
    06:00 +14°C° 0 mm 1 mps 755 mmHg 85%
    07:00 +16°C° 0 mm 1 mps 755 mmHg 80%
    08:00 +17°C° 0 mm 2 mps 756 mmHg 75%
    09:00 +19°C° 0 mm 2 mps 756 mmHg 69%
    10:00 +20°C° 0 mm 2 mps 756 mmHg 65%
    11:00 +21°C° 0 mm 2 mps 755 mmHg 60%
    12:00 +23°C° 0 mm 2 mps 755 mmHg 56%
    13:00 +23°C° 0 mm 2 mps 755 mmHg 54%
    14:00 +24°C° 0 mm 2 mps 755 mmHg 53%
    15:00 +24°C° 0 mm 3 mps 755 mmHg 51%
    16:00 +23°C° 0 mm 2 mps 755 mmHg 56%
    17:00 +21°C° 0 mm 2 mps 754 mmHg 61%
    18:00 +21°C° 0 mm 1 mps 754 mmHg 65%
    19:00 +20°C° 0 mm 1 mps 754 mmHg 68%
    20:00 +17°C° 0 mm 0 mps 754 mmHg 71%
    21:00 +15°C° 0 mm 0 mps 754 mmHg 73%
    22:00 +15°C° 0 mm 0 mps 754 mmHg 74%
    23:00 +16°C° 0 mm 1 mps 754 mmHg 75%

    25 August, Sunday

    Time Temperature Precipitation Wind Pressure Humidity
    00:00 +15°C° 0 mm 1 mps 754 mmHg 77%
    01:00 +15°C° 0 mm 1 mps 754 mmHg 78%
    02:00 +14°C° 0 mm 2 mps 754 mmHg 80%
    03:00 +14°C° 0 mm 2 mps 753 mmHg 82%
    04:00 +14°C° 0 mm 2 mps 753 mmHg 82%
    05:00 +14°C° 0 mm 2 mps 753 mmHg 83%
    06:00 +14°C° 0 mm 2 mps 753 mmHg 84%
    07:00 +16°C° 0 mm 3 mps 753 mmHg 78%
    08:00 +18°C° 0 mm 3 mps 752 mmHg 73%
    09:00 +19°C° 0 mm 4 mps 752 mmHg 68%
    10:00 +21°C° 0 mm 4 mps 752 mmHg 65%
    11:00 +22°C° 0 mm 4 mps 752 mmHg 62%
    12:00 +23°C° 0 mm 5 mps 751 mmHg 59%
    13:00 +23°C° 0 mm 5 mps 751 mmHg 59%
    14:00 +23°C° 0 mm 5 mps 751 mmHg 58%
    15:00 +23°C° 0 mm 5 mps 750 mmHg 58%
    16:00 +22°C° 0.3 mm 5 mps 750 mmHg 64%
    17:00 +21°C° 0.3 mm 5 mps 750 mmHg 71%
    18:00 +19°C° 0.3 mm 5 mps 750 mmHg 78%
    19:00 +18°C° 0.3 mm 4 mps 750 mmHg 83%
    20:00 +17°C° 0.3 mm 3 mps 750 mmHg 88%
    21:00 +16°C° 0.3 mm 2 mps 751 mmHg 93%
    22:00 +14°C° 0.1 mm 3 mps 751 mmHg 92%
    23:00 +14°C° 0.1 mm 3 mps 751 mmHg 91%

    26 August, Monday

    Time Temperature Precipitation Wind Pressure Humidity
    00:00 +13°C° 0.1 mm 4 mps 751 mmHg 90%
    01:00 +12°C° 0 mm 3 mps 752 mmHg 92%
    02:00 +12°C° 0 mm 3 mps 752 mmHg 93%
    03:00 +11°C° 0 mm 3 mps 752 mmHg 95%
    04:00 +11°C° 0 mm 4 mps 753 mmHg 95%
    05:00 +11°C° 0 mm 4 mps 753 mmHg 95%
    06:00 +11°C° 0 mm 4 mps 754 mmHg 96%
    07:00 +11°C° 0 mm 4 mps 754 mmHg 91%
    08:00 +12°C° 0 mm 4 mps 755 mmHg 86%
    09:00 +13°C° 0 mm 4 mps 755 mmHg 81%
    10:00 +13°C° 0 mm 4 mps 755 mmHg 78%
    11:00 +13°C° 0 mm 4 mps 756 mmHg 75%
    12:00 +14°C° 0 mm 4 mps 756 mmHg 72%
    13:00 +14°C° 0 mm 4 mps 756 mmHg 69%
    14:00 +15°C° 0 mm 4 mps 756 mmHg 66%
    15:00 +17°C° 0 mm 4 mps 756 mmHg 63%
    16:00 +17°C° 0 mm 3 mps 756 mmHg 67%
    17:00 +16°C° 0 mm 3 mps 756 mmHg 70%
    18:00 +16°C° 0 mm 2 mps 756 mmHg 74%
    19:00 +14°C° 0 mm 2 mps 757 mmHg 77%
    20:00 +13°C° 0 mm 2 mps 757 mmHg 80%
    21:00 +12°C° 0 mm 1 mps 757 mmHg 83%
    22:00 +11°C° 0 mm 1 mps 757 mmHg 84%
    23:00 +11°C° 0 mm 1 mps 757 mmHg 85%
    Show more